East Milton, MA

11:17 PM EDT on September 19, 2019 (GMT -0400)
East Milton

Weather History for KMQE - August, 2019

Change the Weather History Date:

Friday, August 23, 2019

  Actual Average (KOWD) Record (KOWD)
Temperature  
Mean Temperature 68 °F -  
Max Temperature 77 °F 78 °F 87 °F (1996)
Min Temperature 61 °F 55 °F 45 °F (2002)
Cooling Degree Days 3    
Growing Degree Days 18 (Base 50)    
Moisture  
Dew Point 57 °F    
Average Humidity 68    
Maximum Humidity 93    
Minimum Humidity 43    
Precipitation  
Precipitation 0.03 in - - ()
Sea Level Pressure  
Sea Level Pressure 29.98 in    
Wind  
Wind Speed 7 mph ()    
Max Wind Speed 14 mph    
Max Gust Speed 21 mph    
Averages and records for this station are not official NWS values.
T = Trace of Precipitation, MM = Missing Value Source: Averaged Metar Reports

Daily Weather History Graph

Daily Weather History Graph

Search for Another Location

Airport or City:

Astronomy

Aug. 23, 2019 Rise Set
Actual Time 6:00 AM EDT 7:33 PM EDT
Civil Twilight 5:30 AM EDT 8:02 PM EDT
Nautical Twilight 4:54 AM EDT 8:38 PM EDT
Astronomical Twilight 4:16 AM EDT 9:16 PM EDT
Moon 11:50 PM EDT (8/23) 1:42 PM EDT (8/23)
Length of Visible Light 14h 32m
Length of Day
13h 33m
Waning Gibbous, 50% of the Moon is Illuminated
Aug 23
Waning Gibbous
Aug 30
New
Sep 5
First Quarter
Sep 14
Full
Sep 21
Last Quarter

Hourly Weather History & Observations

Time (EDT) Temp. Dew Point Humidity Pressure Visibility Wind Dir Wind Speed Gust Speed Precip Events Conditions
12:56 AM 69.1 °F 63.0 °F 81% 29.92 in - WNW 9.2 mph - N/A   Unknown
1:56 AM 69.1 °F 63.0 °F 81% 29.91 in - WNW 6.9 mph - N/A   Unknown
2:56 AM 69.1 °F 59.0 °F 70% 29.91 in - NW 10.4 mph - N/A   Unknown
3:56 AM 69.1 °F 55.9 °F 63% 29.92 in - NW 10.4 mph - N/A   Unknown
4:56 AM 68.0 °F 55.0 °F 63% 29.92 in - Variable 4.6 mph - N/A   Unknown
5:56 AM 62.1 °F 57.9 °F 86% 29.94 in - NW 6.9 mph - N/A   Unknown
6:56 AM 61.0 °F 59.0 °F 93% 29.98 in - WNW 6.9 mph - 0.02 in   Unknown
7:56 AM 62.1 °F 60.1 °F 93% 29.98 in - NW 6.9 mph - N/A   Unknown
8:56 AM 64.0 °F 61.0 °F 90% 29.99 in - West 5.8 mph - 0.01 in   Unknown
9:56 AM 66.0 °F 62.1 °F 87% 30.00 in - West 6.9 mph - N/A   Unknown
10:56 AM 69.1 °F 62.1 °F 78% 30.00 in - WNW 5.8 mph - N/A   Unknown
11:56 AM 70.0 °F 61.0 °F 73% 29.99 in - NW 5.8 mph - N/A   Unknown
12:56 PM 72.0 °F 60.1 °F 66% 29.98 in - Variable 3.5 mph - N/A   Unknown
1:56 PM 75.9 °F 55.9 °F 50% 29.97 in - WNW 6.9 mph - N/A   Unknown
2:56 PM 75.0 °F 51.1 °F 43% 29.97 in - WNW 8.1 mph - N/A   Unknown
3:56 PM 75.9 °F 55.0 °F 48% 29.99 in - WNW 9.2 mph - N/A   Unknown
4:56 PM 72.0 °F 55.0 °F 55% 29.99 in - NW 6.9 mph - N/A   Unknown
5:56 PM 71.1 °F 57.0 °F 61% 29.99 in - NW 5.8 mph - N/A   Unknown
6:56 PM 70.0 °F 57.0 °F 63% 29.99 in - NNW 4.6 mph - N/A   Unknown
7:56 PM 68.0 °F 55.0 °F 63% 30.01 in - NNW 6.9 mph - N/A   Unknown
8:56 PM 68.0 °F 52.0 °F 56% 30.03 in - North 11.5 mph 20.7 mph N/A   Unknown
9:56 PM 66.0 °F 50.0 °F 56% 30.03 in - North 13.8 mph 20.7 mph N/A   Unknown
10:56 PM 64.0 °F 48.0 °F 56% 30.04 in - NNW 12.7 mph 17.3 mph N/A   Unknown
11:56 PM 62.1 °F 48.9 °F 62% 30.07 in - NNW 11.5 mph - N/A   Unknown